TimeCDT,TemperatureF,Dew PointF,Humidity,Sea Level PressureIn,VisibilityMPH,Wind Direction,Wind SpeedMPH,Gust SpeedMPH,PrecipitationIn,Events,Conditions,WindDirDegrees,DateUTC
12:53 AM,21.9,14.0,72,29.86,10.0,West,4.6,-,N/A,,Mostly Cloudy,270,2013-03-12 05:53:00
1:53 AM,23.0,12.9,65,29.87,10.0,West,4.6,-,N/A,,Overcast,270,2013-03-12 06:53:00
2:53 AM,23.0,12.9,65,29.87,10.0,West,8.1,-,N/A,,Overcast,260,2013-03-12 07:53:00
3:39 AM,24.8,15.8,69,29.82,10.0,West,9.2,-,N/A,,Overcast,280,2013-03-12 08:39:00
3:53 AM,24.1,16.0,71,29.86,10.0,West,9.2,-,N/A,,Overcast,280,2013-03-12 08:53:00
4:53 AM,24.1,16.0,71,29.86,10.0,WNW,8.1,-,N/A,,Overcast,300,2013-03-12 09:53:00
5:51 AM,24.8,17.6,74,29.83,10.0,WNW,10.4,-,N/A,,Overcast,300,2013-03-12 10:51:00
5:53 AM,24.1,17.1,75,29.87,10.0,WNW,9.2,-,N/A,,Overcast,300,2013-03-12 10:53:00
6:53 AM,23.0,15.1,72,29.89,10.0,NNW,9.2,-,N/A,,Overcast,330,2013-03-12 11:53:00
7:53 AM,21.9,15.1,75,29.90,10.0,NW,9.2,-,0.00,,Overcast,310,2013-03-12 12:53:00
8:53 AM,21.9,14.0,72,29.93,10.0,NW,9.2,-,N/A,,Mostly Cloudy,310,2013-03-12 13:53:00
9:53 AM,24.1,14.0,65,29.94,10.0,NW,16.1,20.7,N/A,,Overcast,320,2013-03-12 14:53:00
10:53 AM,25.0,14.0,63,29.95,10.0,NW,17.3,-,N/A,,Partly Cloudy,310,2013-03-12 15:53:00
11:20 AM,24.8,15.8,69,29.93,10.0,NW,15.0,-,N/A,,Mostly Cloudy,310,2013-03-12 16:20:00
11:36 AM,26.6,15.8,64,29.93,10.0,NW,16.1,-,N/A,,Mostly Cloudy,310,2013-03-12 16:36:00
11:53 AM,26.1,16.0,66,29.97,9.0,NW,17.3,23.0,N/A,,Mostly Cloudy,310,2013-03-12 16:53:00
12:16 PM,26.6,17.6,69,29.94,5.0,NW,17.3,24.2,0.00,Snow,Light Snow,310,2013-03-12 17:16:00
12:53 PM,26.1,18.0,71,29.99,3.0,WNW,12.7,-,0.00,Snow,Light Snow,300,2013-03-12 17:53:00
1:30 PM,28.4,19.4,69,29.95,2.5,NW,15.0,20.7,0.00,Snow,Light Snow,310,2013-03-12 18:30:00
1:37 PM,26.6,17.6,69,29.95,9.0,WNW,18.4,23.0,0.00,,Overcast,300,2013-03-12 18:37:00
1:53 PM,27.0,16.0,63,30.00,7.0,WNW,11.5,23.0,0.00,Snow,Light Snow,300,2013-03-12 18:53:00
2:41 PM,26.6,17.6,69,29.96,2.5,NW,15.0,21.9,0.00,Snow,Light Snow,310,2013-03-12 19:41:00
2:53 PM,27.0,19.0,72,30.00,6.0,West,13.8,-,0.00,Snow,Light Snow,280,2013-03-12 19:53:00
3:15 PM,26.6,17.6,69,29.96,7.0,WNW,16.1,24.2,0.00,Snow,Light Snow,290,2013-03-12 20:15:00
3:35 PM,26.6,17.6,69,29.97,2.5,WNW,15.0,26.5,0.00,Snow,Light Snow,290,2013-03-12 20:35:00
3:48 PM,28.4,17.6,64,29.97,9.0,WNW,18.4,25.3,0.00,,Overcast,300,2013-03-12 20:48:00
3:53 PM,28.0,16.0,61,30.01,10.0,NW,13.8,25.3,0.00,,Overcast,310,2013-03-12 20:53:00
4:53 PM,28.0,14.0,56,30.02,10.0,NW,15.0,24.2,0.00,,Mostly Cloudy,320,2013-03-12 21:53:00
5:53 PM,26.1,16.0,66,30.05,2.5,NW,18.4,26.5,0.00,Snow,Light Snow,320,2013-03-12 22:53:00
6:08 PM,26.6,15.8,64,30.02,9.0,NW,10.4,-,0.00,,Overcast,320,2013-03-12 23:08:00
6:53 PM,27.0,12.0,53,30.07,10.0,NNW,12.7,-,0.00,,Mostly Cloudy,330,2013-03-12 23:53:00
7:53 PM,26.1,9.0,49,30.11,10.0,NNW,15.0,-,N/A,,Partly Cloudy,330,2013-03-13 00:53:00
8:53 PM,25.0,10.0,53,30.14,10.0,NNW,12.7,-,N/A,,Partly Cloudy,330,2013-03-13 01:53:00
10:53 PM,21.9,10.9,63,30.19,10.0,NW,11.5,-,N/A,,Clear,310,2013-03-13 03:53:00
11:53 PM,21.0,12.0,68,30.22,10.0,NW,13.8,17.3,N/A,,Clear,320,2013-03-13 04:53:00